EFW75H LPFR-EGKK

Flight info

Callsign EFW75H
Flight time N/A
Altitude 36000
Route DCT ELVAR DCT BARDI DCT ZMR DCT NUBLO DCT RONSI DCT DELOG DCT NOVAN DCT TERKU/N0441F340 DCT NOZHU DCT OTMET OTMET1G
Aircraft A320/M-SDE3FGIJ1RWXY/SB1

Departure

Time 2026-05-04 19:10
Airport Faro - Gago Coutinho International Airport (LPFR)

Arrival

Time N/A
Airport London Gatwick Airport (EGKK)
Time Latitude Longitude Altitude Speed Heading
2026-05-04 15:36 37.01936 -7.96985 22 ft 0 kts
2026-05-04 18:59 37.01935 -7.96985 22 ft 1 kts
2026-05-04 19:00 37.01920 -7.96988 24 ft 3 kts
2026-05-04 19:00 37.01900 -7.96992 23 ft 3 kts
2026-05-04 19:00 37.01879 -7.96996 21 ft 3 kts
2026-05-04 19:00 37.01859 -7.97000 22 ft 3 kts
2026-05-04 19:01 37.01844 -7.97003 21 ft 1 kts
2026-05-04 19:04 37.01845 -7.97000 22 ft 0 kts 36°
2026-05-04 19:04 37.01844 -7.96995 22 ft 0 kts 78°
2026-05-04 19:04 37.01836 -7.96941 20 ft 13 kts 111°
2026-05-04 19:04 37.01753 -7.96905 20 ft 15 kts 189°
2026-05-04 19:05 37.01670 -7.96847 20 ft 17 kts 110°
2026-05-04 19:05 37.01641 -7.96695 21 ft 19 kts 101°
2026-05-04 19:05 37.01616 -7.96520 20 ft 22 kts 99°
2026-05-04 19:05 37.01589 -7.96329 20 ft 22 kts 99°
2026-05-04 19:06 37.01572 -7.96206 20 ft 0 kts 101°
2026-05-04 19:07 37.01572 -7.96205 20 ft 1 kts 101°
2026-05-04 19:07 37.01567 -7.96171 21 ft 7 kts 101°
2026-05-04 19:08 37.01555 -7.96100 22 ft 11 kts 101°
2026-05-04 19:08 37.01540 -7.95991 21 ft 14 kts 99°
2026-05-04 19:08 37.01508 -7.95863 20 ft 17 kts 135°
2026-05-04 19:08 37.01393 -7.95859 22 ft 18 kts 198°
2026-05-04 19:09 37.01355 -7.95948 21 ft 0 kts 277°
2026-05-04 19:09 37.01358 -7.95978 22 ft 20 kts 278°
2026-05-04 19:09 37.01427 -7.96472 24 ft 91 kts 280°
2026-05-04 19:10 37.01571 -7.97486 23 ft 144 kts 280°
2026-05-04 19:10 37.01751 -7.98800 351 ft 159 kts 278°
2026-05-04 19:10 37.01916 -8.00220 843 ft 170 kts 278°
2026-05-04 19:10 37.02089 -8.01735 1344 ft 182 kts 279°
2026-05-04 19:11 37.02373 -8.03376 1626 ft 206 kts 292°
2026-05-04 19:11 37.03394 -8.04728 1948 ft 231 kts 336°
2026-05-04 19:11 37.05047 -8.04970 2412 ft 253 kts
2026-05-04 19:11 37.06772 -8.04365 3238 ft 261 kts 20°
2026-05-04 19:12 37.08471 -8.03520 4169 ft 265 kts 22°
2026-05-04 19:12 37.11931 -8.01822 5992 ft 272 kts 19°
2026-05-04 19:12 37.13739 -8.01035 6727 ft 279 kts 18°
2026-05-04 19:13 37.15585 -8.00287 7639 ft 280 kts 17°
2026-05-04 19:13 37.17461 -7.99566 8497 ft 283 kts 16°
2026-05-04 19:13 37.19363 -7.98859 9331 ft 286 kts 16°
2026-05-04 19:13 37.21290 -7.98153 10135 ft 290 kts 16°
2026-05-04 19:14 37.23305 -7.97418 10485 ft 312 kts 16°
2026-05-04 19:14 37.25464 -7.96631 10724 ft 334 kts 16°
2026-05-04 19:14 37.27730 -7.95803 11282 ft 343 kts 16°
2026-05-04 19:14 37.30033 -7.94957 11972 ft 347 kts 16°
2026-05-04 19:15 37.32362 -7.94097 12663 ft 351 kts 16°
2026-05-04 19:15 37.34717 -7.93229 13350 ft 354 kts 16°
2026-05-04 19:15 37.37090 -7.92355 14027 ft 357 kts 16°
2026-05-04 19:15 37.39458 -7.91481 14672 ft 361 kts 16°
2026-05-04 19:16 37.41877 -7.90586 15316 ft 364 kts 16°
2026-05-04 19:16 37.44347 -7.89672 15919 ft 367 kts 16°
2026-05-04 19:16 37.46813 -7.88760 16516 ft 371 kts 16°
2026-05-04 19:16 37.49267 -7.87854 17098 ft 374 kts 16°
2026-05-04 19:17 37.51775 -7.86927 17688 ft 377 kts 16°
2026-05-04 19:17 37.54301 -7.85991 18280 ft 380 kts 16°
2026-05-04 19:17 37.56850 -7.85043 18876 ft 383 kts 16°
2026-05-04 19:17 37.59456 -7.84075 19476 ft 387 kts 16°
2026-05-04 19:18 37.62015 -7.83124 20062 ft 390 kts 16°
2026-05-04 19:18 37.64635 -7.82150 20636 ft 393 kts 16°
2026-05-04 19:18 37.67269 -7.81171 21178 ft 397 kts 16°
2026-05-04 19:18 37.69928 -7.80183 21701 ft 400 kts 16°
2026-05-04 19:19 37.72609 -7.79184 22198 ft 403 kts 16°
2026-05-04 19:19 37.75313 -7.78177 22701 ft 406 kts 16°
2026-05-04 19:19 37.78035 -7.77163 23184 ft 409 kts 16°
2026-05-04 19:19 37.80771 -7.76143 23649 ft 412 kts 16°
2026-05-04 19:20 37.83529 -7.75113 24105 ft 415 kts 16°
2026-05-04 19:20 37.86306 -7.74073 24537 ft 418 kts 16°
2026-05-04 19:20 37.89099 -7.73023 24955 ft 420 kts 16°
2026-05-04 19:20 37.91913 -7.71966 25362 ft 423 kts 16°
2026-05-04 19:21 37.94744 -7.70905 25767 ft 426 kts 16°
2026-05-04 19:21 37.97599 -7.69838 26156 ft 428 kts 16°
2026-05-04 19:21 38.00467 -7.68765 26537 ft 431 kts 16°
2026-05-04 19:21 38.03345 -7.67688 26903 ft 433 kts 16°
2026-05-04 19:22 38.06249 -7.66600 27266 ft 435 kts 16°
2026-05-04 19:22 38.09166 -7.65503 27624 ft 438 kts 16°
2026-05-04 19:22 38.12090 -7.64401 27984 ft 440 kts 16°
2026-05-04 19:22 38.15033 -7.63291 28328 ft 442 kts 16°
2026-05-04 19:23 38.17958 -7.62186 28667 ft 445 kts 16°
2026-05-04 19:23 38.20935 -7.61060 28992 ft 447 kts 16°
2026-05-04 19:23 38.23927 -7.59928 29300 ft 450 kts 16°
2026-05-04 19:23 38.26935 -7.58790 29620 ft 452 kts 16°
2026-05-04 19:24 38.29959 -7.57647 29939 ft 454 kts 16°
2026-05-04 19:24 38.32997 -7.56500 30241 ft 456 kts 16°
2026-05-04 19:24 38.36037 -7.55350 30616 ft 456 kts 16°
2026-05-04 19:24 38.39076 -7.54197 31043 ft 455 kts 16°
2026-05-04 19:25 38.42106 -7.53045 31456 ft 454 kts 16°
2026-05-04 19:25 38.45137 -7.51891 31864 ft 453 kts 16°
2026-05-04 19:25 38.48156 -7.50741 32271 ft 452 kts 16°
2026-05-04 19:25 38.51170 -7.49593 32665 ft 452 kts 16°
2026-05-04 19:26 38.54181 -7.48444 33056 ft 451 kts 16°
2026-05-04 19:26 38.57184 -7.47299 33448 ft 451 kts 16°
2026-05-04 19:26 38.60189 -7.46153 33840 ft 450 kts 16°
2026-05-04 19:26 38.63155 -7.45022 33980 ft 450 kts 16°
2026-05-04 19:27 38.66152 -7.43875 34011 ft 449 kts 16°
2026-05-04 19:27 38.72137 -7.41574 34009 ft 449 kts 16°
2026-05-04 19:28 38.78133 -7.39276 34010 ft 450 kts 16°
2026-05-04 19:28 38.84134 -7.36974 34010 ft 449 kts 16°
2026-05-04 19:29 38.90090 -7.34685 34010 ft 449 kts 16°
2026-05-04 19:29 38.96087 -7.32364 34010 ft 450 kts 17°
2026-05-04 19:30 39.02077 -7.30044 34010 ft 449 kts 17°
2026-05-04 19:30 39.08068 -7.27722 34010 ft 449 kts 17°
2026-05-04 19:31 39.14057 -7.25405 34007 ft 449 kts 16°
2026-05-04 19:31 39.20048 -7.23080 34010 ft 450 kts 17°
2026-05-04 19:32 39.25777 -7.19827 34009 ft 450 kts 27°
2026-05-04 19:32 39.31317 -7.16154 34010 ft 450 kts 27°
2026-05-04 19:33 39.36893 -7.12440 34009 ft 451 kts 27°
2026-05-04 19:33 39.42476 -7.08729 34010 ft 451 kts 27°
2026-05-04 19:34 39.48059 -7.05020 34010 ft 451 kts 27°
2026-05-04 19:34 39.53637 -7.01308 34010 ft 450 kts 27°
2026-05-04 19:35 39.59206 -6.97591 34009 ft 450 kts 27°
2026-05-04 19:35 39.64738 -6.93893 34010 ft 450 kts 27°
2026-05-04 19:36 39.70311 -6.90162 34010 ft 450 kts 27°
2026-05-04 19:36 39.75877 -6.86432 34008 ft 450 kts 27°
2026-05-04 19:37 39.81441 -6.82699 34010 ft 450 kts 27°
2026-05-04 19:37 39.87002 -6.78953 34009 ft 450 kts 27°
2026-05-04 19:38 39.92561 -6.75201 34010 ft 450 kts 27°
2026-05-04 19:38 39.98128 -6.71428 34010 ft 450 kts 27°
2026-05-04 19:39 40.02750 -6.68295 34010 ft 450 kts 27°
2026-05-04 19:39 40.08314 -6.64517 34010 ft 450 kts 27°
2026-05-04 19:40 40.13878 -6.60737 34009 ft 451 kts 27°
2026-05-04 19:40 40.19438 -6.56948 34009 ft 451 kts 27°
2026-05-04 19:41 40.25009 -6.53142 34010 ft 452 kts 27°
2026-05-04 19:41 40.30588 -6.49331 34007 ft 452 kts 27°
2026-05-04 19:42 40.36184 -6.45505 34010 ft 454 kts 27°
2026-05-04 19:42 40.41761 -6.41681 34008 ft 456 kts 27°
2026-05-04 19:43 40.47377 -6.37819 34010 ft 454 kts 27°
2026-05-04 19:43 40.52971 -6.33967 34006 ft 454 kts 27°
2026-05-04 19:44 40.58581 -6.30096 34009 ft 455 kts 27°
2026-05-04 19:44 40.64193 -6.26231 34010 ft 455 kts 27°
2026-05-04 19:45 40.69791 -6.22364 34008 ft 454 kts 27°
2026-05-04 19:45 40.75391 -6.18489 34007 ft 454 kts 27°
2026-05-04 19:46 40.80958 -6.14627 34010 ft 454 kts 27°
2026-05-04 19:46 40.86554 -6.10741 34009 ft 454 kts 27°
2026-05-04 19:47 40.92155 -6.06849 34010 ft 455 kts 27°
2026-05-04 19:47 40.97754 -6.02941 34010 ft 455 kts 27°
2026-05-04 19:48 41.03349 -5.99030 34006 ft 455 kts 27°
2026-05-04 19:48 41.08950 -5.95097 34010 ft 454 kts 27°
2026-05-04 19:49 41.14542 -5.91168 34010 ft 454 kts 27°
2026-05-04 19:49 41.20136 -5.87243 34007 ft 455 kts 27°
2026-05-04 19:50 41.25712 -5.83332 34010 ft 455 kts 27°
2026-05-04 19:50 41.31312 -5.79389 34008 ft 455 kts 27°
2026-05-04 19:51 41.36903 -5.75430 34010 ft 454 kts 28°
2026-05-04 19:51 41.42482 -5.71470 34007 ft 455 kts 28°
2026-05-04 19:52 41.48067 -5.67508 34008 ft 454 kts 28°
2026-05-04 19:52 41.53633 -5.63637 34006 ft 454 kts 23°
2026-05-04 19:53 41.59452 -5.60347 34008 ft 454 kts 22°
2026-05-04 19:53 41.65285 -5.57064 34010 ft 454 kts 22°
2026-05-04 19:54 41.71082 -5.53800 34010 ft 454 kts 22°
2026-05-04 19:54 41.76899 -5.50507 34010 ft 454 kts 22°
2026-05-04 19:55 41.82717 -5.47204 34010 ft 454 kts 22°
2026-05-04 19:55 41.88538 -5.43897 34010 ft 454 kts 22°
2026-05-04 19:56 41.94363 -5.40583 34008 ft 454 kts 22°
2026-05-04 19:56 42.00190 -5.37265 34010 ft 455 kts 22°
2026-05-04 19:57 42.05981 -5.33957 34010 ft 455 kts 22°
2026-05-04 19:57 42.11809 -5.30612 34010 ft 455 kts 23°
2026-05-04 19:58 42.17628 -5.27261 34010 ft 455 kts 23°
2026-05-04 19:58 42.23447 -5.23924 34010 ft 455 kts 22°
2026-05-04 19:59 42.29268 -5.20580 34010 ft 455 kts 23°
2026-05-04 19:59 42.35095 -5.17215 34008 ft 455 kts 23°
2026-05-04 20:00 42.40925 -5.13844 34008 ft 455 kts 23°
2026-05-04 20:00 42.46753 -5.10465 34010 ft 456 kts 23°
2026-05-04 20:01 42.52583 -5.07075 34010 ft 456 kts 23°
2026-05-04 20:01 42.58416 -5.03677 34009 ft 456 kts 23°
2026-05-04 20:02 42.64250 -5.00276 34010 ft 456 kts 23°
2026-05-04 20:02 42.70085 -4.96871 34010 ft 457 kts 23°
2026-05-04 20:03 42.75886 -4.93479 34010 ft 457 kts 23°
2026-05-04 20:03 42.81752 -4.90038 34008 ft 458 kts 23°
2026-05-04 20:04 42.87618 -4.86582 34009 ft 460 kts 23°
2026-05-04 20:04 42.93497 -4.83111 34006 ft 460 kts 23°
2026-05-04 20:05 42.99379 -4.79629 34009 ft 462 kts 23°
2026-05-04 20:05 43.05289 -4.76135 34010 ft 462 kts 23°
2026-05-04 20:06 43.11172 -4.72650 34010 ft 459 kts 23°
2026-05-04 20:06 43.16967 -4.69210 34009 ft 455 kts 23°
2026-05-04 20:07 43.22803 -4.65734 34011 ft 459 kts 23°
2026-05-04 20:07 43.28630 -4.62247 34009 ft 454 kts 23°
2026-05-04 20:08 43.34407 -4.58794 34007 ft 452 kts 23°
2026-05-04 20:08 43.40177 -4.55343 34010 ft 451 kts 23°
2026-05-04 20:09 43.45934 -4.51886 34010 ft 451 kts 23°
2026-05-04 20:09 43.51681 -4.48428 34008 ft 451 kts 23°
2026-05-04 20:10 43.57430 -4.44962 34010 ft 451 kts 23°
2026-05-04 20:10 43.63177 -4.41486 34008 ft 451 kts 23°
2026-05-04 20:11 43.68922 -4.38008 34009 ft 451 kts 23°
2026-05-04 20:11 43.74662 -4.34522 34010 ft 451 kts 23°
2026-05-04 20:12 43.80407 -4.31024 34075 ft 452 kts 23°
2026-05-04 20:12 43.83249 -4.29295 34486 ft 451 kts 23°
2026-05-04 20:12 43.86124 -4.27544 34900 ft 450 kts 24°
2026-05-04 20:12 43.88985 -4.25797 35279 ft 449 kts 24°
2026-05-04 20:13 43.91841 -4.24052 35643 ft 448 kts 24°
2026-05-04 20:13 43.94699 -4.22303 35934 ft 448 kts 24°
2026-05-04 20:13 43.97553 -4.20556 36002 ft 448 kts 24°
2026-05-04 20:14 44.03266 -4.17048 36009 ft 448 kts 24°
2026-05-04 20:14 44.08968 -4.13539 36008 ft 448 kts 24°
2026-05-04 20:15 44.14663 -4.10031 36008 ft 448 kts 24°
2026-05-04 20:15 44.20328 -4.06537 36008 ft 448 kts 24°
2026-05-04 20:16 44.26027 -4.03012 36013 ft 448 kts 24°
2026-05-04 20:16 44.31757 -3.99604 36015 ft 448 kts 18°
2026-05-04 20:17 44.37869 -3.98058 36016 ft 447 kts
2026-05-04 20:17 44.44062 -3.97211 36016 ft 447 kts
2026-05-04 20:18 44.50259 -3.96332 36017 ft 447 kts
2026-05-04 20:18 44.56457 -3.95447 36018 ft 448 kts
2026-05-04 20:19 44.62656 -3.94577 36020 ft 448 kts
2026-05-04 20:19 44.68861 -3.93707 36022 ft 448 kts
2026-05-04 20:20 44.75032 -3.92834 36024 ft 448 kts
2026-05-04 20:20 44.81232 -3.91951 36025 ft 448 kts
2026-05-04 20:21 44.87439 -3.91056 36025 ft 448 kts
2026-05-04 20:21 44.96743 -3.89733 36024 ft 448 kts
2026-05-04 20:22 45.02945 -3.88850 36025 ft 448 kts
2026-05-04 20:22 45.09156 -3.87958 36025 ft 448 kts
2026-05-04 20:23 45.15360 -3.87073 36024 ft 448 kts
2026-05-04 20:23 45.21557 -3.86177 36023 ft 448 kts
2026-05-04 20:24 45.27709 -3.85293 36022 ft 447 kts
2026-05-04 20:24 45.33906 -3.84408 36021 ft 448 kts
2026-05-04 20:25 45.40108 -3.83505 36023 ft 448 kts
2026-05-04 20:25 45.46304 -3.82594 36022 ft 447 kts
2026-05-04 20:26 45.51455 -3.81833 36022 ft 447 kts
2026-05-04 20:26 45.57651 -3.80929 36022 ft 448 kts
2026-05-04 20:27 45.63859 -3.80043 36023 ft 448 kts
2026-05-04 20:27 45.70064 -3.79135 36023 ft 448 kts
2026-05-04 20:28 45.76261 -3.78225 36023 ft 447 kts
2026-05-04 20:28 45.82460 -3.77315 36022 ft 447 kts
2026-05-04 20:29 45.88655 -3.76400 36022 ft 448 kts
2026-05-04 20:29 45.94856 -3.75481 36023 ft 448 kts
2026-05-04 20:30 46.01017 -3.74572 36024 ft 448 kts
2026-05-04 20:30 46.07215 -3.73653 36024 ft 448 kts
2026-05-04 20:31 46.13411 -3.72733 36025 ft 448 kts
2026-05-04 20:31 46.19612 -3.71798 36025 ft 448 kts
2026-05-04 20:32 46.25815 -3.70866 36027 ft 448 kts
2026-05-04 20:32 46.32020 -3.69940 36027 ft 448 kts
2026-05-04 20:33 46.38253 -3.69396 36028 ft 448 kts
2026-05-04 20:33 46.44485 -3.69237 36027 ft 448 kts
2026-05-04 20:34 46.50718 -3.69072 36027 ft 448 kts
2026-05-04 20:34 46.56947 -3.68798 36026 ft 447 kts
2026-05-04 20:35 46.63170 -3.68484 36025 ft 447 kts
2026-05-04 20:35 46.69357 -3.68174 36024 ft 447 kts
2026-05-04 20:36 46.75584 -3.67877 36023 ft 447 kts
2026-05-04 20:36 46.81807 -3.67588 36022 ft 447 kts
2026-05-04 20:37 46.87995 -3.67294 36022 ft 447 kts
2026-05-04 20:37 46.94219 -3.66984 36023 ft 447 kts
2026-05-04 20:38 47.00444 -3.66682 36023 ft 447 kts
2026-05-04 20:38 47.06673 -3.66394 36023 ft 447 kts
2026-05-04 20:39 47.12892 -3.66089 36024 ft 447 kts
2026-05-04 20:39 47.19116 -3.65786 36024 ft 447 kts
2026-05-04 20:40 47.25343 -3.65489 36025 ft 447 kts
2026-05-04 20:40 47.31526 -3.65192 36026 ft 448 kts
2026-05-04 20:41 47.37752 -3.64890 36026 ft 448 kts
2026-05-04 20:41 47.43975 -3.64586 36027 ft 448 kts
2026-05-04 20:42 47.50206 -3.64288 36027 ft 448 kts
2026-05-04 20:42 47.56435 -3.63982 36028 ft 448 kts
2026-05-04 20:43 47.62666 -3.63673 36029 ft 448 kts
2026-05-04 20:43 47.68904 -3.63364 36029 ft 448 kts
2026-05-04 20:44 47.75132 -3.63065 36029 ft 448 kts
2026-05-04 20:44 47.81373 -3.62762 36030 ft 448 kts
2026-05-04 20:45 47.87539 -3.61997 36026 ft 448 kts 16°
2026-05-04 20:45 47.93243 -3.58305 36023 ft 448 kts 28°
2026-05-04 20:46 47.98623 -3.53583 36023 ft 449 kts 30°
2026-05-04 20:46 48.04032 -3.48896 36024 ft 449 kts 30°
2026-05-04 20:47 48.09465 -3.44271 36026 ft 449 kts 29°
2026-05-04 20:47 48.14911 -3.39624 36027 ft 450 kts 30°
2026-05-04 20:48 48.20303 -3.34986 36027 ft 450 kts 30°
2026-05-04 20:48 48.25729 -3.30290 36028 ft 450 kts 30°
2026-05-04 20:49 48.31157 -3.25590 36028 ft 450 kts 30°
2026-05-04 20:49 48.36580 -3.20886 36027 ft 450 kts 30°
2026-05-04 20:50 48.42008 -3.16168 36027 ft 450 kts 30°
2026-05-04 20:50 48.47424 -3.11436 36028 ft 450 kts 30°
2026-05-04 20:51 48.52800 -3.06731 36026 ft 445 kts 30°
2026-05-04 20:51 48.58180 -3.02003 36008 ft 448 kts 30°
2026-05-04 20:52 48.63563 -2.97265 36008 ft 448 kts 30°
2026-05-04 20:52 48.68952 -2.92525 36008 ft 448 kts 30°
2026-05-04 20:53 48.74338 -2.87777 36008 ft 447 kts 30°
2026-05-04 20:53 48.79718 -2.83012 36011 ft 447 kts 30°
2026-05-04 20:54 48.85060 -2.78257 36015 ft 448 kts 30°
2026-05-04 20:54 48.90439 -2.73475 36019 ft 448 kts 30°
2026-05-04 20:55 48.95824 -2.68673 36022 ft 448 kts 30°
2026-05-04 20:55 49.01204 -2.63867 36024 ft 448 kts 30°
2026-05-04 20:56 49.06544 -2.59080 36024 ft 448 kts 30°
2026-05-04 20:56 49.11911 -2.54253 36023 ft 448 kts 30°
2026-05-04 20:57 49.17281 -2.49411 36022 ft 448 kts 30°
2026-05-04 20:57 49.22645 -2.44565 36021 ft 447 kts 30°
2026-05-04 20:58 49.28010 -2.39717 36019 ft 447 kts 30°
2026-05-04 20:58 49.33364 -2.34856 36018 ft 447 kts 30°
2026-05-04 20:59 49.38718 -2.29976 36020 ft 448 kts 30°
2026-05-04 20:59 49.44033 -2.25112 36020 ft 448 kts 30°
2026-05-04 21:00 49.49382 -2.20220 36020 ft 447 kts 30°
2026-05-04 21:00 49.54739 -2.15315 36020 ft 447 kts 30°
2026-05-04 21:01 49.60087 -2.10393 36019 ft 447 kts 31°
2026-05-04 21:01 49.65436 -2.05455 36021 ft 448 kts 31°
2026-05-04 21:02 49.70790 -2.00496 35839 ft 448 kts 31°